Find Starlink 31553

NORAD ID: 59363 Int'l Des: 2024-060 Owner: SPXS Country: US Constellation: starlink operational
LEOCIRCULAR

Live Position

Loading 3D Globe...

About Starlink 31553

Description loading...

Upcoming Passes

Passes for default location (London). Set your location on the main map for personalized predictions.

Altitude History

Loading altitude history...

Two-Line Element Set

1 59363U 24060R 26126.50030198 -.00013379 00000-0 -47668-3 0 9990
2 59363 43.0056 286.4891 0001349 274.5806 85.4892 15.27636561118988
Epoch: May 6, 2026 • Age: 17 hours

Current Status

Altitude 492.8 km
Velocity 7.62 km/s
Sub-Earth Point -36.90°S, 70.78°W
Launch Date Mar 31, 2024
Age 2 years
Type internet

Technical Details

Classification Payload
Mass 730.00 kg
Dry Mass 700.00 kg
Total Mass 730.00 kg
Length 0.30 m
Diameter 4.10 m
Span 29.00 m
Shape Box + pan
Manufacturer SPXS
Bus Type Starlink V2M
Phase Status In Orbit
Owner/State SPXS/US

Most Searched